QPF
0.00 0.00 0.00 0.00 0.00 0.00 0.00 0.00 0.00 0.00 0.00 0.00 0.00 0.00 0.00 0.01 0.03 0.07 0.08 0.10 0.09 0.01 0.00 0.02 0.10 0.08 0.09 0.05 0.05 0.01 0.07 0.08 0.09 0.07 0.07 0.05 0.02 0.01 0.01 0.00 0.01 0.04 0.00
0.00 0.00 0.00 0.00 0.00 0.00 0.00 0.00 0.00 0.00 0.00 0.00 0.00 0.00 0.02 0.03 0.02 0.03 0.05 0.05 0.03 0.00 0.00 0.01 0.07 0.09 0.10 0.08 0.06 0.01 0.06 0.09 0.09 0.03 0.02 0.01 0.00 0.00 0.00 0.01 0.00 0.01 0.01
0.00 0.00 0.00 0.00 0.00 0.00 0.00 0.00 0.00 0.00 0.00 0.00 0.00 0.00 0.02 0.04 0.04 0.05 0.07 0.03 0.02 0.01 0.01 0.03 0.07 0.11 0.11 0.07 0.05 0.02 0.06 0.08 0.07 0.01 0.00 0.00 0.00 0.00 0.00 0.01 0.01 0.02 0.05
0.00 0.00 0.00 0.00 0.00 0.00 0.00 0.00 0.00 0.00 0.00 0.00 0.00 0.00 0.02 0.01 0.00 0.00 0.03 0.02 0.03 0.04 0.01 0.02 0.06 0.14 0.16 0.04 0.01 0.04 0.06 0.03 0.01 0.01 0.00 0.00 0.00 0.00 0.01 0.01 0.02 0.04 0.02
0.00 0.00 0.00 0.00 0.00 0.00 0.00 0.00 0.00 0.00 0.00 0.00 0.00 0.01 0.01 0.00 0.00 0.00 0.01 0.01 0.00 0.01 0.00 0.04 0.08 0.12 0.12 0.06 0.00 0.02 0.03 0.01 0.00 0.00 0.00 0.00 0.00 0.01 0.01 0.02 0.01 0.00 0.00
0.00 0.00 0.00 0.00 0.00 0.00 0.00 0.00 0.00 0.00 0.01 0.00 0.01 0.00 0.00 0.00 0.00 0.00 0.00 0.00 0.00 0.00 0.01 0.02 0.01 0.01 0.00 0.00 0.01 0.00 0.01 0.00 0.00 0.00 0.00 0.00 0.01 0.01 0.01 0.00 0.00 0.00 0.00
0.00 0.00 0.00 0.00 0.00 0.00 0.00 0.00 0.00 0.00 0.04 0.02 0.02 0.00 0.01 0.00 0.00 0.00 0.00 0.00 0.00 0.00 0.00 0.00 0.00 0.00 0.00 0.00 0.00 0.00 0.00 0.00 0.00 0.00 0.00 0.00 0.00 0.00 0.00 0.00 0.00 0.00 0.00
0.00 0.00 0.00 0.00 0.00 0.00 0.00 0.00 0.00 0.01 0.03 0.02 0.02 0.01 0.01 0.00 0.00 0.00 0.00 0.01 0.00 0.00 0.00 0.00 0.00 0.00 0.00 0.00 0.00 0.00 0.00 0.00 0.00 0.00 0.00 0.00 0.00 0.00 0.00 0.00 0.00 0.00 0.00
0.00 0.00 0.00 0.00 0.00 0.00 0.00 0.00 0.00 0.01 0.00 0.01 0.01 0.01 0.01 0.00 0.00 0.00 0.00 0.01 0.00 0.00 0.00 0.00 0.00 0.00 0.00 0.00 0.00 0.00 0.00 0.00 0.00 0.00 0.00 0.00 0.00 0.00 0.00 0.00 0.00 0.00 0.00
0.00 0.00 0.00 0.00 0.00 0.00 0.00 0.00 0.01 0.01 0.00 0.01 0.00 0.00 0.00 0.00 0.00 0.00 0.00 0.00 0.01 0.00 0.00 0.00 0.00 0.00 0.00 0.00 0.01 0.00 0.00 0.00 0.00 0.00 0.00 0.00 0.00 0.00 0.00 0.00 0.00 0.00 0.00
0.00 0.00 0.00 0.00 0.00 0.00 0.00 0.01 0.04 0.02 0.03 0.02 0.02 0.01 0.00 0.00 0.00 0.00 0.00 0.00 0.00 0.00 0.00 0.00 0.00 0.00 0.00 0.00 0.00 0.00 0.00 0.00 0.00 0.00 0.00 0.00 0.00 0.00 0.00 0.00 0.01 0.01 0.00
0.00 0.00 0.00 0.00 0.00 0.00 0.01 0.05 0.08 0.10 0.06 0.03 0.04 0.00 0.00 0.00 0.00 0.00 0.00 0.00 0.00 0.00 0.00 0.00 0.00 0.00 0.00 0.00 0.00 0.00 0.00 0.00 0.00 0.00 0.00 0.00 0.00 0.00 0.01 0.01 0.01 0.01 0.00
0.00 0.00 0.00 0.00 0.00 0.01 0.08 0.08 0.10 0.08 0.08 0.04 0.04 0.01 0.00 0.00 0.00 0.00 0.00 0.00 0.00 0.00 0.00 0.00 0.00 0.00 0.00 0.00 0.00 0.00 0.00 0.00 0.00 0.00 0.00 0.00 0.00 0.01 0.01 0.01 0.01 0.00 0.00
0.00 0.00 0.00 0.00 0.00 0.03 0.07 0.09 0.12 0.07 0.04 0.02 0.02 0.00 0.00 0.01 0.00 0.00 0.00 0.00 0.00 0.00 0.00 0.00 0.00 0.00 0.00 0.00 0.00 0.00 0.00 0.01 0.00 0.00 0.00 0.00 0.01 0.01 0.00 0.00 0.00 0.00 0.00
0.00 0.00 0.00 0.00 0.01 0.04 0.06 0.10 0.16 0.09 0.03 0.01 0.02 0.00 0.00 0.00 0.01 0.00 0.00 0.00 0.00 0.00 0.00 0.00 0.00 0.00 0.00 0.00 0.00 0.00 0.01 0.00 0.01 0.01 0.01 0.01 0.01 0.00 0.00 0.00 0.00 0.00 0.00
0.00 0.00 0.00 0.00 0.00 0.01 0.00 0.01 0.05 0.01 0.00 0.00 0.00 0.00 0.00 0.00 0.00 0.00 0.00 0.00 0.00 0.00 0.00 0.00 0.00 0.00 0.00 0.00 0.01 0.01 0.01 0.01 0.02 0.01 0.00 0.00 0.00 0.00 0.00 0.00 0.00 0.00 0.00
0.00 0.00 0.00 0.00 0.00 0.00 0.00 0.08 0.05 0.00 0.00 0.00 0.00 0.00 0.00 0.00 0.00 0.00 0.00 0.00 0.00 0.00 0.00 0.00 0.00 0.00 0.00 0.00 0.00 0.01 0.01 0.02 0.01 0.01 0.00 0.00 0.00 0.00 0.00 0.00 0.00 0.00 0.00
0.00 0.00 0.00 0.00 0.00 0.00 0.00 0.03 0.01 0.02 0.01 0.01 0.00 0.00 0.00 0.00 0.00 0.00 0.00 0.00 0.00 0.01 0.01 0.00 0.00 0.00 0.00 0.00 0.00 0.00 0.01 0.01 0.00 0.00 0.00 0.00 0.00 0.00 0.00 0.00 0.00 0.00 0.00
0.00 0.00 0.00 0.00 0.00 0.00 0.00 0.00 0.00 0.00 0.02 0.02 0.00 0.00 0.00 0.00 0.00 0.00 0.00 0.00 0.00 0.00 0.00 0.00 0.00 0.00 0.00 0.00 0.00 0.00 0.00 0.00 0.00 0.00 0.00 0.00 0.00 0.00 0.00 0.00 0.00 0.00 0.00
0.00 0.00 0.00 0.00 0.00 0.00 0.00 0.00 0.00 0.00 0.00 0.01 0.02 0.00 0.00 0.00 0.00 0.00 0.00 0.00 0.00 0.00 0.00 0.00 0.00 0.00 0.00 0.00 0.00 0.00 0.00 0.00 0.00 0.00 0.00 0.00 0.00 0.00 0.00 0.00 0.00 0.00 0.00
0.00 0.00 0.00 0.00 0.00 0.00 0.00 0.00 0.00 0.00 0.00 0.00 0.01 0.00 0.00 0.00 0.00 0.00 0.00 0.00 0.00 0.00 0.00 0.00 0.00 0.00 0.00 0.00 0.00 0.00 0.00 0.00 0.00 0.00 0.00 0.00 0.00 0.00 0.00 0.00 0.00 0.00 0.00
0.00 0.00 0.00 0.00 0.00 0.00 0.00 0.00 0.00 0.00 0.00 0.00 0.00 0.00 0.00 0.00 0.00 0.00 0.00 0.00 0.00 0.00 0.00 0.00 0.00 0.00 0.00 0.00 0.00 0.00 0.00 0.00 0.00 0.00 0.00 0.00 0.00 0.00 0.00 0.00 0.00 0.00 0.00
0.00 0.00 0.00 0.00 0.00 0.00 0.00 0.00 0.00 0.00 0.00 0.00 0.00 0.00 0.00 0.00 0.00 0.00 0.00 0.00 0.00 0.00 0.00 0.00 0.00 0.00 0.00 0.00 0.00 0.00 0.00 0.00 0.00 0.00 0.00 0.00 0.00 0.00 0.00 0.00 0.00 0.00 0.00
0.01 0.00 0.00 0.00 0.00 0.00 0.00 0.00 0.00 0.00 0.00 0.00 0.00 0.00 0.00 0.00 0.00 0.00 0.00 0.00 0.00 0.00 0.00 0.00 0.00 0.00 0.00 0.00 0.00 0.00 0.00 0.00 0.00 0.00 0.00 0.00 0.00 0.00 0.00 0.00 0.00 0.00 0.00
0.02 0.02 0.01 0.00 0.00 0.00 0.00 0.00 0.00 0.00 0.00 0.00 0.00 0.00 0.00 0.00 0.00 0.00 0.00 0.00 0.00 0.00 0.00 0.00 0.00 0.00 0.00 0.00 0.00 0.00 0.00 0.00 0.00 0.00 0.00 0.00 0.00 0.00 0.00 0.00 0.00 0.00 0.00
0.00 0.01 0.03 0.02 0.01 0.00 0.00 0.00 0.00 0.00 0.00 0.00 0.00 0.00 0.00 0.00 0.00 0.00 0.00 0.00 0.00 0.00 0.00 0.00 0.00 0.00 0.00 0.00 0.00 0.00 0.00 0.00 0.00 0.00 0.00 0.00 0.00 0.00 0.00 0.00 0.00 0.00 0.00
MSLP
998.09 998.57 999.08 999.69 1000.26 1000.87 1001.44 1002.12 1002.79 1003.39 1003.94 1004.35 1004.73 1005.12 1005.45 1005.75 1005.99 1006.37 1006.58 1006.70 1007.15 1008.01 1008.49 1008.69 1008.30 1008.24 1008.46 1008.37 1008.64 1009.03 1009.25 1009.48 1009.65 1010.67 1011.21 1011.75 1011.82 1011.90 1012.28 1012.85 1013.36 1013.80 1014.66
998.27 998.87 999.65 1000.25 1000.76 1001.29 1001.82 1002.44 1003.09 1003.52 1003.95 1004.31 1004.62 1004.88 1005.10 1005.42 1005.69 1005.90 1006.06 1006.16 1007.19 1007.93 1008.24 1008.55 1008.02 1007.97 1008.09 1008.32 1008.63 1009.11 1009.09 1009.35 1009.72 1010.51 1011.69 1012.27 1012.58 1012.76 1013.14 1013.45 1013.77 1014.31 1015.04
998.58 999.46 1000.24 1000.82 1001.24 1001.68 1002.20 1002.84 1003.27 1003.70 1004.02 1004.29 1004.53 1004.66 1004.96 1005.28 1005.57 1005.78 1006.00 1006.54 1007.41 1007.85 1008.09 1008.08 1007.72 1007.73 1007.90 1008.21 1008.32 1008.67 1008.95 1009.32 1009.71 1010.63 1011.88 1012.65 1013.19 1013.46 1013.76 1014.22 1014.68 1015.26 1015.95
998.99 999.80 1000.50 1001.13 1001.63 1002.04 1002.58 1003.10 1003.51 1003.75 1004.04 1004.34 1004.55 1004.63 1004.96 1005.27 1005.52 1005.70 1006.06 1006.58 1007.06 1007.52 1007.62 1007.74 1007.64 1007.58 1007.73 1007.92 1008.30 1008.56 1008.89 1009.39 1009.82 1011.01 1012.16 1012.88 1013.48 1014.06 1014.33 1014.67 1015.62 1016.26 1016.70
999.40 1000.07 1000.84 1001.48 1001.92 1002.37 1002.79 1003.21 1003.54 1003.81 1004.01 1004.23 1004.58 1004.90 1005.30 1005.53 1005.93 1006.06 1006.40 1006.76 1007.17 1007.43 1007.92 1008.02 1007.83 1007.80 1008.08 1008.04 1008.15 1008.63 1009.02 1009.45 1010.07 1011.42 1012.24 1013.14 1013.81 1014.28 1014.80 1015.51 1016.10 1016.97 1017.88
999.79 1000.36 1001.03 1001.48 1002.05 1002.62 1003.08 1003.38 1003.72 1003.84 1004.11 1004.29 1004.62 1004.87 1005.35 1005.64 1007.07 1006.98 1006.74 1006.80 1007.39 1007.66 1007.72 1007.92 1007.87 1008.47 1008.73 1008.90 1008.96 1009.07 1009.23 1009.59 1010.04 1011.23 1012.30 1013.14 1013.98 1014.53 1015.27 1015.73 1016.43 1017.21 1018.55
999.87 1000.53 1001.09 1001.58 1002.09 1002.71 1003.11 1003.47 1003.75 1004.06 1004.62 1004.67 1004.87 1005.15 1005.55 1006.35 1007.31 1007.25 1007.19 1006.88 1007.54 1007.83 1007.98 1008.26 1008.62 1008.70 1008.93 1009.16 1009.64 1009.70 1009.84 1010.21 1010.34 1011.02 1012.03 1012.95 1013.89 1014.59 1015.16 1016.07 1016.62 1017.27 1018.27
999.88 1000.43 1001.09 1001.48 1002.08 1002.70 1003.12 1003.42 1003.91 1004.39 1004.87 1005.01 1005.06 1005.35 1005.77 1006.85 1007.46 1007.60 1007.39 1007.29 1007.74 1008.05 1008.36 1008.63 1008.78 1008.87 1009.03 1009.42 1009.61 1009.86 1010.33 1010.87 1011.14 1011.14 1012.24 1013.07 1014.00 1014.85 1015.24 1015.83 1016.55 1017.88 1019.15
999.67 1000.32 1000.93 1001.55 1002.15 1002.73 1003.06 1003.64 1004.05 1004.54 1004.99 1005.13 1005.18 1005.46 1006.01 1006.92 1007.67 1007.81 1007.67 1007.57 1008.12 1008.32 1008.60 1008.86 1009.18 1009.06 1009.74 1009.89 1009.74 1009.94 1010.47 1011.58 1012.02 1012.05 1012.74 1013.61 1014.53 1015.23 1015.66 1016.30 1017.34 1017.95 1018.96
999.64 1000.33 1000.99 1001.47 1002.12 1002.69 1003.20 1003.69 1004.03 1004.52 1004.88 1004.86 1005.29 1005.79 1006.88 1007.19 1007.91 1008.00 1007.95 1008.19 1008.38 1008.61 1009.02 1009.33 1009.61 1009.70 1010.23 1010.43 1010.25 1010.64 1011.22 1011.87 1012.59 1013.49 1014.36 1014.94 1015.16 1016.05 1016.38 1016.48 1016.70 1017.55 1018.30
999.88 1000.50 1001.13 1001.72 1002.32 1002.78 1003.41 1003.88 1004.25 1004.47 1004.69 1005.09 1005.50 1006.25 1007.06 1007.39 1008.06 1008.29 1008.33 1008.34 1008.58 1008.80 1009.24 1009.76 1010.11 1010.42 1010.75 1010.90 1010.95 1011.30 1011.87 1012.42 1013.28 1013.89 1014.67 1015.29 1015.78 1016.29 1016.66 1016.82 1016.83 1017.32 1017.51
999.96 1000.54 1001.27 1002.04 1002.27 1003.03 1003.59 1004.17 1004.51 1004.80 1005.05 1005.33 1005.88 1006.74 1007.27 1007.89 1008.40 1008.58 1008.60 1008.61 1008.55 1008.51 1009.38 1010.13 1010.83 1010.98 1011.26 1011.44 1011.54 1012.15 1012.72 1013.14 1013.64 1014.26 1014.86 1015.43 1015.84 1016.12 1016.43 1016.47 1016.62 1016.59 1016.32
1000.03 1000.70 1001.55 1002.15 1002.48 1003.03 1003.85 1004.27 1004.60 1004.82 1005.15 1005.41 1005.84 1006.09 1007.37 1008.20 1008.83 1008.95 1009.01 1009.07 1009.03 1009.09 1009.84 1010.73 1011.31 1011.60 1011.88 1012.20 1012.52 1012.98 1013.33 1013.60 1013.94 1014.34 1014.80 1015.27 1015.82 1015.92 1016.04 1016.40 1016.58 1016.85 1017.13
1000.28 1000.95 1001.66 1002.08 1002.55 1003.18 1003.85 1004.45 1004.66 1004.73 1004.93 1005.19 1005.62 1006.23 1007.27 1008.28 1008.89 1009.17 1009.51 1009.55 1009.92 1010.51 1010.97 1011.42 1011.74 1012.04 1012.29 1012.88 1013.24 1013.38 1013.31 1013.57 1013.85 1014.26 1014.72 1015.19 1015.66 1015.93 1016.06 1016.19 1016.60 1017.11 1016.38
1000.86 1001.00 1001.53 1001.97 1002.53 1003.26 1004.11 1005.10 1005.04 1005.20 1005.43 1005.40 1005.58 1006.03 1007.07 1008.10 1008.90 1009.04 1009.35 1009.09 1009.71 1010.68 1011.12 1011.49 1011.96 1012.43 1012.83 1013.13 1013.30 1013.20 1012.86 1013.32 1013.68 1014.01 1014.38 1014.95 1015.14 1015.52 1015.76 1015.89 1016.09 1016.23 1015.80
1000.91 1000.90 1001.07 1001.63 1002.28 1002.83 1003.73 1005.17 1006.26 1006.22 1006.25 1006.19 1006.19 1006.10 1006.87 1007.65 1008.84 1009.38 1009.54 1009.82 1010.42 1010.84 1010.91 1011.15 1011.83 1012.32 1012.61 1012.84 1012.81 1012.91 1012.97 1013.36 1013.40 1013.88 1014.34 1014.44 1014.63 1014.86 1014.83 1015.17 1015.24 1015.33 1015.40
1000.11 1000.81 1001.02 1001.31 1001.71 1002.37 1003.17 1004.35 1005.44 1007.06 1007.20 1007.25 1007.25 1007.23 1007.32 1008.32 1009.12 1009.64 1010.01 1010.40 1010.74 1010.75 1010.47 1010.81 1011.29 1011.79 1012.16 1012.36 1012.23 1012.28 1012.53 1012.85 1013.11 1013.27 1013.51 1013.79 1013.56 1013.89 1014.53 1014.57 1014.62 1014.76 1014.86
1000.03 1000.65 1000.82 1000.78 1001.34 1001.98 1002.75 1003.58 1004.19 1005.26 1006.23 1007.14 1008.19 1008.36 1008.64 1009.03 1009.52 1010.03 1010.51 1010.87 1011.14 1010.88 1010.65 1010.72 1010.91 1011.08 1011.16 1011.25 1011.44 1011.71 1011.93 1012.41 1012.46 1012.83 1013.04 1013.17 1013.21 1013.51 1013.91 1013.88 1014.10 1014.21 1014.27
1000.00 1000.42 1000.34 1000.62 1001.07 1001.69 1002.39 1002.81 1003.63 1004.15 1004.87 1006.03 1007.63 1008.76 1009.56 1009.91 1010.18 1010.35 1010.45 1010.23 1010.34 1010.12 1009.99 1010.09 1010.18 1010.41 1010.54 1010.59 1010.72 1010.91 1011.25 1011.48 1011.85 1012.13 1012.32 1012.50 1012.80 1012.99 1013.22 1013.47 1013.42 1013.70 1013.82
999.95 1000.28 1000.45 1000.72 1001.43 1001.75 1002.27 1002.45 1002.88 1003.38 1004.07 1005.27 1006.06 1007.35 1009.17 1009.88 1010.33 1010.62 1010.14 1009.63 1009.73 1009.79 1009.91 1009.98 1010.16 1010.23 1010.36 1010.15 1010.46 1010.63 1011.16 1011.61 1011.80 1011.92 1011.90 1012.12 1012.38 1012.59 1012.58 1012.70 1012.85 1012.90 1013.18
999.70 1000.75 1000.87 1000.70 1001.12 1001.39 1001.79 1002.26 1002.83 1003.26 1003.56 1004.22 1005.24 1007.09 1007.75 1008.14 1008.73 1009.38 1008.89 1008.73 1008.57 1008.34 1008.66 1008.79 1009.10 1009.59 1009.79 1009.91 1009.96 1010.35 1010.97 1011.36 1011.24 1011.45 1011.41 1011.59 1011.81 1011.90 1012.11 1012.01 1012.08 1012.21 1012.21
999.76 1000.37 1000.88 1000.56 1000.89 1001.41 1001.73 1002.16 1002.65 1003.06 1003.44 1004.02 1005.04 1007.46 1007.88 1007.95 1007.05 1007.50 1007.54 1007.28 1007.43 1007.68 1008.07 1008.44 1008.49 1008.90 1009.10 1009.24 1009.48 1009.82 1010.22 1010.62 1010.65 1010.67 1010.86 1010.94 1011.15 1011.34 1011.40 1011.40 1011.46 1011.45 1011.44
1000.34 1000.44 1000.62 1000.70 1001.15 1001.97 1002.44 1002.29 1002.59 1002.93 1003.28 1003.80 1004.69 1006.76 1007.80 1007.10 1005.97 1006.11 1006.41 1006.78 1007.06 1007.24 1007.45 1007.78 1008.03 1008.11 1008.43 1008.67 1008.84 1009.15 1009.29 1009.42 1009.61 1009.85 1010.07 1010.19 1010.27 1010.32 1010.41 1010.40 1010.41 1010.38 1010.37
1001.16 1001.19 1001.30 1001.40 1001.56 1002.12 1002.44 1002.84 1003.07 1003.70 1003.48 1003.80 1004.60 1005.46 1006.21 1006.30 1006.10 1006.09 1006.21 1006.41 1006.74 1007.09 1007.40 1007.61 1007.83 1007.92 1008.03 1008.33 1008.42 1008.64 1008.73 1008.80 1008.85 1008.91 1009.30 1009.35 1009.36 1009.37 1009.57 1009.31 1009.26 1009.26 1009.34
1004.32 1002.86 1002.66 1002.86 1003.08 1003.73 1003.87 1003.98 1004.28 1004.65 1004.91 1005.04 1005.46 1005.92 1005.98 1006.40 1006.39 1006.65 1006.92 1007.05 1007.18 1007.32 1007.51 1007.65 1007.72 1007.77 1008.05 1008.39 1008.85 1009.04 1009.26 1009.71 1009.41 1009.32 1008.93 1008.71 1008.80 1008.87 1008.73 1008.44 1008.36 1008.38 1008.37
1006.82 1006.16 1005.99 1006.10 1006.30 1006.86 1007.21 1007.53 1007.95 1008.44 1008.61 1008.65 1008.60 1008.43 1008.20 1008.55 1008.96 1009.01 1009.03 1009.12 1008.62 1008.28 1008.38 1008.30 1008.46 1009.30 1009.98 1010.62 1011.69 1011.75 1011.16 1010.82 1010.43 1010.57 1010.10 1009.20 1008.79 1008.35 1007.93 1007.68 1007.66 1007.56 1007.27
Thickness
5735 5734 5731 5726 5721 5717 5710 5704 5699 5693 5687 5681 5677 5672 5668 5664 5662 5656 5653 5651 5644 5634 5627 5622 5627 5629 5627 5629 5629 5627 5628 5629 5627 5624 5625 5625 5629 5632 5632 5631 5631 5631 5630
5731 5727 5721 5716 5712 5706 5702 5697 5691 5686 5682 5677 5674 5670 5668 5664 5661 5657 5653 5650 5637 5628 5624 5622 5627 5629 5628 5629 5627 5624 5629 5631 5629 5624 5620 5620 5622 5625 5626 5627 5629 5628 5626
5724 5716 5710 5705 5702 5698 5693 5688 5683 5679 5676 5673 5672 5669 5666 5662 5658 5655 5651 5643 5632 5626 5623 5622 5628 5628 5628 5627 5629 5629 5630 5631 5632 5626 5618 5618 5617 5620 5622 5622 5622 5621 5619
5715 5709 5703 5699 5695 5691 5686 5681 5677 5675 5671 5669 5668 5667 5663 5660 5657 5653 5648 5640 5632 5624 5623 5624 5627 5628 5629 5630 5629 5629 5630 5630 5631 5623 5617 5616 5616 5616 5618 5619 5615 5614 5615
5706 5701 5696 5693 5689 5684 5679 5675 5672 5669 5668 5667 5664 5662 5658 5655 5651 5649 5644 5636 5628 5624 5619 5621 5625 5627 5625 5630 5632 5629 5629 5629 5627 5619 5617 5614 5614 5615 5615 5613 5611 5608 5604
5697 5694 5692 5688 5683 5677 5672 5668 5665 5664 5663 5663 5660 5659 5655 5653 5637 5637 5638 5634 5626 5622 5621 5620 5624 5621 5621 5623 5625 5627 5630 5628 5627 5621 5616 5614 5613 5613 5610 5611 5609 5607 5600
5694 5690 5687 5683 5678 5672 5668 5665 5662 5659 5657 5657 5656 5655 5652 5647 5635 5635 5633 5635 5626 5622 5618 5618 5617 5620 5621 5622 5618 5622 5624 5625 5630 5627 5619 5616 5612 5611 5611 5608 5609 5608 5602
5690 5687 5684 5681 5675 5670 5666 5664 5660 5656 5652 5652 5653 5653 5650 5642 5634 5632 5631 5632 5626 5622 5619 5617 5617 5620 5622 5621 5623 5623 5623 5624 5625 5627 5622 5618 5613 5610 5611 5611 5608 5601 5592
5689 5685 5682 5677 5672 5667 5664 5660 5657 5654 5650 5651 5653 5651 5648 5641 5632 5630 5631 5631 5623 5620 5618 5616 5616 5620 5615 5616 5622 5623 5623 5619 5620 5623 5621 5617 5613 5608 5608 5608 5602 5601 5595
5688 5684 5680 5677 5670 5664 5661 5658 5657 5655 5652 5656 5652 5650 5640 5639 5630 5630 5631 5627 5621 5618 5615 5614 5612 5617 5612 5614 5620 5619 5618 5618 5617 5615 5612 5610 5610 5605 5606 5606 5608 5603 5599
5686 5681 5676 5672 5666 5663 5658 5656 5654 5654 5655 5653 5651 5645 5640 5639 5633 5628 5630 5628 5623 5619 5615 5612 5612 5609 5610 5613 5618 5618 5617 5615 5610 5611 5608 5607 5607 5605 5604 5605 5607 5606 5605
5683 5678 5673 5666 5665 5659 5655 5651 5651 5650 5650 5649 5647 5641 5639 5636 5630 5627 5628 5629 5628 5627 5619 5614 5609 5608 5610 5613 5618 5611 5610 5611 5610 5608 5607 5605 5606 5608 5607 5610 5611 5613 5618
5680 5675 5668 5664 5662 5659 5651 5650 5649 5650 5648 5648 5647 5647 5639 5633 5629 5624 5625 5626 5627 5628 5622 5611 5607 5607 5608 5609 5608 5607 5609 5610 5609 5608 5607 5606 5606 5611 5613 5613 5615 5616 5616
5675 5671 5666 5663 5660 5656 5653 5650 5649 5650 5650 5651 5650 5646 5640 5633 5629 5628 5626 5627 5623 5619 5614 5611 5608 5607 5609 5606 5607 5608 5613 5612 5611 5609 5609 5608 5610 5612 5614 5616 5615 5614 5624
5670 5671 5667 5664 5660 5654 5650 5645 5647 5647 5649 5654 5654 5651 5642 5635 5631 5631 5630 5634 5630 5623 5619 5617 5613 5610 5608 5608 5610 5613 5619 5618 5617 5616 5614 5612 5614 5615 5617 5621 5622 5623 5629
5668 5671 5671 5666 5662 5658 5652 5644 5628 5633 5636 5640 5644 5651 5648 5639 5630 5626 5627 5625 5622 5621 5625 5623 5617 5613 5612 5612 5615 5617 5621 5620 5622 5619 5618 5620 5621 5623 5627 5627 5631 5632 5632
5677 5673 5673 5670 5667 5660 5655 5648 5644 5633 5629 5632 5636 5639 5643 5636 5629 5626 5624 5622 5622 5625 5632 5630 5626 5622 5620 5620 5623 5626 5626 5627 5628 5628 5629 5629 5635 5635 5631 5633 5635 5636 5636
5680 5674 5676 5676 5672 5666 5661 5656 5655 5650 5647 5644 5631 5632 5631 5630 5627 5625 5623 5622 5624 5628 5632 5633 5632 5633 5634 5634 5633 5632 5633 5632 5634 5633 5634 5636 5638 5638 5636 5638 5639 5639 5639
5681 5679 5682 5681 5677 5671 5667 5664 5661 5659 5657 5652 5642 5633 5625 5623 5623 5624 5626 5634 5633 5636 5639 5640 5641 5640 5641 5642 5642 5643 5641 5641 5641 5640 5641 5641 5641 5642 5641 5641 5643 5638 5638
5682 5678 5682 5681 5676 5673 5669 5668 5666 5666 5663 5657 5655 5650 5634 5631 5631 5628 5634 5639 5638 5638 5639 5640 5641 5642 5643 5646 5645 5646 5643 5641 5641 5642 5644 5645 5645 5644 5645 5645 5645 5644 5642
5684 5676 5676 5682 5679 5678 5676 5672 5669 5668 5668 5667 5665 5655 5643 5651 5646 5639 5645 5647 5649 5653 5651 5651 5650 5648 5648 5649 5650 5648 5644 5643 5646 5646 5648 5648 5648 5646 5647 5648 5648 5648 5648
5683 5679 5677 5682 5683 5680 5679 5677 5674 5672 5672 5670 5668 5652 5641 5653 5661 5656 5655 5658 5659 5659 5658 5656 5656 5654 5654 5654 5654 5652 5650 5648 5650 5651 5650 5651 5650 5649 5649 5649 5649 5649 5649
5677 5678 5679 5680 5680 5674 5674 5678 5677 5676 5675 5675 5672 5657 5652 5660 5671 5669 5665 5664 5664 5664 5664 5663 5661 5662 5661 5659 5658 5657 5656 5655 5655 5655 5653 5653 5654 5654 5654 5653 5653 5654 5654
5669 5670 5671 5674 5675 5673 5674 5673 5675 5668 5676 5677 5673 5669 5664 5665 5667 5668 5668 5669 5668 5667 5666 5665 5664 5663 5663 5660 5660 5659 5659 5659 5660 5660 5658 5658 5659 5659 5658 5659 5660 5659 5658
5635 5654 5659 5659 5661 5659 5660 5662 5663 5663 5664 5666 5665 5663 5665 5662 5662 5661 5661 5662 5662 5662 5662 5661 5661 5660 5658 5657 5654 5654 5654 5653 5653 5655 5657 5661 5660 5660 5660 5661 5661 5660 5659
5609 5618 5625 5629 5631 5629 5628 5627 5626 5624 5626 5629 5632 5635 5639 5637 5635 5637 5638 5639 5644 5648 5648 5650 5646 5642 5639 5636 5628 5630 5635 5638 5639 5639 5640 5648 5651 5655 5657 5657 5656 5656 5658